| time (UTC) | temp F | wind direction | speed MPH | gust MPH | rain 1hr in | rain 24hr in | rain mn in | humidity % | barometer mb |
| 20260905095630 | 78 | 219 | 0.0 | 0.0 | 0.00 | 0.00 | 0.00 | 91 | 1010.5 |
| 20260905095129 | 78 | 219 | 0.0 | 0.0 | 0.00 | 0.00 | 0.00 | 91 | 1010.5 |
| 20260905094629 | 78 | 219 | 0.0 | 0.0 | 0.00 | 0.00 | 0.00 | 91 | 1010.5 |
| 20260905094505 | 77 | 219 | 0.0 | 0.0 | 0.00 | 0.00 | 0.00 | 91 | 1010.4 |
| 20260905094130 | 78 | 219 | 0.0 | 0.0 | 0.00 | 0.00 | 0.00 | 91 | 1010.5 |
| 20260905093629 | 78 | 219 | 0.0 | 0.0 | 0.00 | 0.00 | 0.00 | 91 | 1010.5 |
| 20260905093131 | 78 | 219 | 0.0 | 0.0 | 0.00 | 0.00 | 0.00 | 91 | 1010.5 |
| 20260905093032 | 78 | 219 | 0.0 | 0.0 | 0.00 | 0.00 | 0.00 | 91 | 1010.3 |
| 20260905092630 | 78 | 219 | 0.0 | 0.0 | 0.00 | 0.00 | 0.00 | 91 | 1010.4 |
| 20260905092130 | 78 | 219 | 0.0 | 0.0 | 0.00 | 0.00 | 0.00 | 91 | 1010.4 |
| 20260905091629 | 78 | 219 | 0.0 | 1.0 | 0.00 | 0.00 | 0.00 | 91 | 1010.4 |
| 20260905091510 | 78 | 219 | 0.0 | 1.0 | 0.00 | 0.00 | 0.00 | 91 | 1010.2 |
| 20260905091130 | 78 | 219 | 0.0 | 1.0 | 0.00 | 0.00 | 0.00 | 91 | 1010.4 |
| 20260905090927 | 78 | 219 | 0.0 | 0.0 | 0.00 | 0.00 | 0.00 | 91 | 1010.4 |
| 20260905090129 | 78 | 219 | 0.0 | 0.0 | 0.00 | 0.00 | 0.00 | 91 | 1010.4 |
| 20260905090004 | 78 | 219 | 0.0 | 0.0 | 0.00 | 0.00 | 0.00 | 91 | 1010.3 |
| 20260905085630 | 78 | 219 | 0.0 | 1.0 | 0.00 | 0.00 | 0.00 | 91 | 1010.4 |
| 20260905085421 | 78 | 219 | 0.0 | 1.0 | 0.00 | 0.00 | 0.00 | 91 | 1010.4 |
| 20260905084630 | 78 | 219 | 0.0 | 1.0 | 0.00 | 0.00 | 0.00 | 91 | 1010.4 |
| 20260905084504 | 78 | 219 | 0.0 | 1.0 | 0.00 | 0.00 | 0.00 | 91 | 1010.3 |
| 20260905084422 | 78 | 219 | 0.0 | 1.0 | 0.00 | 0.00 | 0.00 | 91 | 1010.3 |
| 20260905083630 | 78 | 219 | 0.0 | 0.0 | 0.00 | 0.00 | 0.00 | 91 | 1010.3 |
| 20260905083129 | 78 | 219 | 0.0 | 1.0 | 0.00 | 0.00 | 0.00 | 91 | 1010.3 |
| 20260905083003 | 78 | 219 | 0.0 | 1.0 | 0.00 | 0.00 | 0.00 | 91 | 1010.2 |
| 20260905082629 | 78 | 219 | 0.0 | 1.0 | 0.00 | 0.00 | 0.00 | 91 | 1010.4 |
| 20260905082130 | 78 | 219 | 0.0 | 0.0 | 0.00 | 0.00 | 0.00 | 90 | 1010.4 |
| 20260905081629 | 78 | 219 | 0.0 | 0.0 | 0.00 | 0.00 | 0.00 | 90 | 1010.4 |
| 20260905081505 | 78 | 219 | 0.0 | 0.0 | 0.00 | 0.00 | 0.00 | 90 | 1010.3 |
| 20260905081130 | 78 | 219 | 0.0 | 0.0 | 0.00 | 0.00 | 0.00 | 90 | 1010.4 |
| 20260905080629 | 78 | 219 | 0.0 | 0.0 | 0.00 | 0.00 | 0.00 | 90 | 1010.4 |
| 20260905080140 | 78 | 219 | 0.0 | 0.0 | 0.00 | 0.00 | 0.00 | 90 | 1010.3 |
| 20260905080130 | 79 | 219 | 0.0 | 0.0 | 0.00 | 0.00 | 0.00 | 90 | 1010.4 |
| 20260905075715 | 79 | 219 | 0.0 | 0.0 | 0.00 | 0.00 | 0.00 | 90 | 1010.5 |
| 20260905075659 | 79 | 219 | 0.0 | 0.0 | 0.00 | 0.00 | 0.00 | 90 | 1010.5 |
| 20260905074920 | 79 | 219 | 0.0 | 1.0 | 0.00 | 0.00 | 0.00 | 90 | 1010.5 |
| 20260905074539 | 78 | 219 | 0.0 | 1.0 | 0.00 | 0.00 | 0.00 | 90 | 1010.3 |
| 20260905074128 | 79 | 219 | 0.0 | 1.0 | 0.00 | 0.00 | 0.00 | 90 | 1010.5 |
| 20260905073630 | 79 | 219 | 0.0 | 0.0 | 0.00 | 0.00 | 0.00 | 90 | 1010.5 |
| 20260905073130 | 79 | 219 | 0.0 | 0.0 | 0.00 | 0.00 | 0.00 | 90 | 1010.5 |
| 20260905073032 | 79 | 219 | 0.0 | 0.0 | 0.00 | 0.00 | 0.00 | 90 | 1010.4 |
| 20260905072630 | 79 | 219 | 0.0 | 0.0 | 0.00 | 0.00 | 0.00 | 90 | 1010.4 |
| 20260905072131 | 79 | 219 | 0.0 | 0.0 | 0.00 | 0.00 | 0.00 | 90 | 1010.4 |
| 20260905071629 | 79 | 219 | 0.0 | 0.0 | 0.00 | 0.00 | 0.00 | 90 | 1010.4 |
| 20260905071520 | 79 | 219 | 0.0 | 0.0 | 0.00 | 0.00 | 0.00 | 90 | 1010.3 |
| 20260905071118 | 79 | 219 | 0.0 | 0.0 | 0.00 | 0.00 | 0.00 | 89 | 1010.5 |
| 20260905070604 | 80 | 219 | 0.0 | 1.0 | 0.00 | 0.00 | 0.00 | 90 | 1010.5 |
| 20260905070005 | 79 | 219 | 0.0 | 2.0 | 0.00 | 0.00 | 0.00 | 89 | 1010.3 |
| 20260905065603 | 80 | 219 | 0.0 | 2.0 | 0.00 | 0.00 | 0.00 | 90 | 1010.5 |
| 20260905065348 | 80 | 216 | 0.0 | 2.0 | 0.00 | 0.00 | 0.00 | 90 | 1010.5 |
| 20260905064602 | 80 | 223 | 0.0 | 2.0 | 0.00 | 0.00 | 0.00 | 89 | 1010.5 |
| 20260905064504 | 79 | 222 | 0.0 | 2.0 | 0.00 | 0.00 | 0.00 | 90 | 1010.4 |
| 20260905064103 | 80 | 223 | 0.0 | 2.0 | 0.00 | 0.00 | 0.00 | 90 | 1010.9 |
| 20260905063602 | 80 | 228 | 0.0 | 1.0 | 0.00 | 0.00 | 0.00 | 90 | 1010.9 |
| 20260905063104 | 80 | 223 | 0.0 | 1.0 | 0.00 | 0.00 | 0.00 | 90 | 1010.9 |
| 20260905063005 | 79 | 223 | 0.0 | 1.0 | 0.00 | 0.00 | 0.00 | 90 | 1010.8 |
| 20260905062854 | 80 | 223 | 0.0 | 1.0 | 0.00 | 0.00 | 0.00 | 90 | 1011.0 |
| 20260905062102 | 80 | 226 | 0.0 | 0.0 | 0.00 | 0.00 | 0.00 | 90 | 1011.0 |
| 20260905061601 | 80 | 226 | 0.0 | 0.0 | 0.00 | 0.00 | 0.00 | 90 | 1011.0 |
| 20260905061504 | 79 | 226 | 0.0 | 0.0 | 0.00 | 0.00 | 0.00 | 90 | 1010.8 |
| 20260905061356 | 80 | 303 | 0.0 | 0.0 | 0.00 | 0.00 | 0.00 | 90 | 1011.1 |
| 20260905060857 | 80 | 303 | 0.0 | 0.0 | 0.00 | 0.00 | 0.00 | 90 | 1011.1 |
| 20260905060107 | 80 | 303 | 0.0 | 0.0 | 0.00 | 0.00 | 0.00 | 90 | 1010.9 |
| 20260905055602 | 80 | 302 | 0.0 | 0.0 | 0.00 | 0.00 | 0.00 | 90 | 1011.4 |
| 20260905055102 | 80 | 303 | 0.0 | 0.0 | 0.00 | 0.00 | 0.00 | 90 | 1011.4 |
| 20260905054602 | 80 | 303 | 0.0 | 0.0 | 0.00 | 0.00 | 0.00 | 90 | 1011.4 |
| 20260905054543 | 80 | 303 | 0.0 | 0.0 | 0.00 | 0.00 | 0.00 | 90 | 1011.3 |
| 20260905054107 | 80 | 303 | 0.0 | 0.0 | 0.00 | 0.00 | 0.00 | 90 | 1011.5 |
| 20260905053850 | 80 | 303 | 0.0 | 0.0 | 0.00 | 0.00 | 0.00 | 90 | 1011.5 |
| 20260905053103 | 80 | 303 | 0.0 | 0.0 | 0.00 | 0.00 | 0.00 | 90 | 1011.5 |
| 20260905053030 | 80 | 303 | 0.0 | 0.0 | 0.00 | 0.00 | 0.00 | 90 | 1011.4 |
| 20260905052602 | 80 | 303 | 0.0 | 0.0 | 0.00 | 0.00 | 0.00 | 90 | 1011.8 |
| 20260905052100 | 80 | 302 | 0.0 | 0.0 | 0.00 | 0.00 | 0.00 | 90 | 1011.8 |
| 20260905051601 | 80 | 303 | 0.0 | 0.0 | 0.00 | 0.00 | 0.00 | 90 | 1011.8 |
| 20260905051514 | 80 | 303 | 0.0 | 0.0 | 0.00 | 0.00 | 0.00 | 90 | 1011.7 |
| 20260905051100 | 80 | 303 | 0.0 | 0.0 | 0.00 | 0.00 | 0.00 | 90 | 1012.0 |
| 20260905050602 | 80 | 303 | 0.0 | 0.0 | 0.00 | 0.00 | 0.00 | 90 | 1012.0 |
| 20260905050106 | 80 | 303 | 0.0 | 1.0 | 0.00 | 0.00 | 0.00 | 90 | 1012.0 |
| 20260905050002 | 80 | 303 | 0.0 | 0.0 | 0.00 | 0.00 | 0.00 | 90 | 1011.9 |
| 20260905045602 | 80 | 303 | 0.0 | 1.0 | 0.00 | 0.00 | 0.00 | 89 | 1012.0 |
| 20260905045343 | 81 | 303 | 0.0 | 2.0 | 0.00 | 0.00 | 0.00 | 89 | 1012.0 |
| 20260905044601 | 81 | 303 | 0.0 | 2.0 | 0.00 | 0.00 | 0.00 | 89 | 1012.0 |
| 20260905044544 | 80 | 303 | 0.0 | 2.0 | 0.00 | 0.00 | 0.00 | 89 | 1011.9 |
| 20260905044102 | 81 | 60 | 0.0 | 1.0 | 0.00 | 0.00 | 0.00 | 89 | 1011.9 |
| 20260905043602 | 81 | 98 | 0.0 | 1.0 | 0.00 | 0.00 | 0.00 | 89 | 1011.9 |
| 20260905043102 | 81 | 105 | 0.0 | 0.0 | 0.00 | 0.00 | 0.00 | 89 | 1011.9 |
| 20260905043033 | 81 | 105 | 0.0 | 0.0 | 0.00 | 0.00 | 0.00 | 89 | 1011.8 |
| 20260905042602 | 81 | 105 | 0.0 | 0.0 | 0.00 | 0.00 | 0.00 | 89 | 1012.0 |
| 20260905042102 | 81 | 105 | 0.0 | 0.0 | 0.00 | 0.00 | 0.00 | 89 | 1012.0 |
| 20260905041846 | 81 | 105 | 0.0 | 0.0 | 0.00 | 0.00 | 0.00 | 89 | 1012.0 |
| 20260905041512 | 81 | 105 | 0.0 | 0.0 | 0.00 | 0.00 | 0.00 | 89 | 1011.9 |
| 20260905041101 | 82 | 105 | 0.0 | 0.0 | 0.00 | 0.00 | 0.00 | 89 | 1012.0 |
| 20260905040603 | 82 | 105 | 0.0 | 0.0 | 0.00 | 0.00 | 0.00 | 88 | 1012.0 |
| 20260905040103 | 82 | 105 | 0.0 | 0.0 | 0.00 | 0.00 | 0.00 | 88 | 1012.0 |
| 20260905040005 | 81 | 105 | 0.0 | 0.0 | 0.00 | 0.00 | 0.00 | 88 | 1011.9 |
| 20260905035602 | 82 | 105 | 0.0 | 0.0 | 0.00 | 0.00 | 0.00 | 88 | 1012.0 |
| 20260905035343 | 82 | 105 | 0.0 | 0.0 | 0.00 | 0.00 | 0.00 | 88 | 1012.0 |
| 20260905034601 | 82 | 105 | 0.0 | 0.0 | 0.00 | 0.00 | 0.00 | 87 | 1012.0 |
| 20260905034514 | 82 | 105 | 0.0 | 0.0 | 0.00 | 0.00 | 0.00 | 87 | 1011.9 |
| 20260905034101 | 83 | 105 | 0.0 | 1.0 | 0.00 | 0.00 | 0.00 | 87 | 1012.0 |
| 20260905033604 | 83 | 105 | 0.0 | 1.0 | 0.00 | 0.00 | 0.00 | 87 | 1012.0 |
| 20260905033346 | 83 | 105 | 0.0 | 1.0 | 0.00 | 0.00 | 0.00 | 87 | 1012.0 |
| 20260905033004 | 82 | 105 | 0.0 | 1.0 | 0.00 | 0.00 | 0.00 | 87 | 1011.9 |
| 20260905032604 | 83 | 105 | 1.0 | 2.0 | 0.00 | 0.00 | 0.00 | 87 | 1012.0 |
| 20260905032103 | 83 | 108 | 2.0 | 3.0 | 0.00 | 0.00 | 0.00 | 87 | 1012.0 |
| 20260905031602 | 83 | 114 | 1.0 | 3.0 | 0.00 | 0.00 | 0.00 | 87 | 1012.0 |
| 20260905031503 | 82 | 117 | 2.0 | 3.0 | 0.00 | 0.00 | 0.00 | 87 | 1011.9 |
| 20260905031347 | 83 | 84 | 0.0 | 2.0 | 0.00 | 0.00 | 0.00 | 87 | 1011.9 |
| 20260905030603 | 83 | 113 | 1.0 | 3.0 | 0.00 | 0.00 | 0.00 | 87 | 1011.9 |
| 20260905030053 | 83 | 123 | 1.0 | 3.0 | 0.00 | 0.00 | 0.00 | 87 | 1011.8 |
| 20260905025853 | 83 | 98 | 1.0 | 2.0 | 0.00 | 0.00 | 0.00 | 87 | 1011.7 |
| 20260905025101 | 83 | 113 | 0.0 | 2.0 | 0.00 | 0.00 | 0.00 | 87 | 1011.7 |
| 20260905024600 | 83 | 149 | 0.0 | 1.0 | 0.00 | 0.00 | 0.00 | 87 | 1011.7 |
| 20260905024538 | 82 | 149 | 0.0 | 1.0 | 0.00 | 0.00 | 0.00 | 87 | 1011.5 |
| 20260905024102 | 83 | 216 | 0.0 | 1.0 | 0.00 | 0.00 | 0.00 | 87 | 1011.9 |
| 20260905023603 | 83 | 216 | 0.0 | 1.0 | 0.00 | 0.00 | 0.00 | 86 | 1011.9 |
| 20260905023102 | 83 | 217 | 0.0 | 1.0 | 0.00 | 0.00 | 0.00 | 86 | 1011.9 |
| 20260905023027 | 82 | 217 | 0.0 | 1.0 | 0.00 | 0.00 | 0.00 | 86 | 1011.8 |
| 20260905022601 | 83 | 217 | 0.0 | 1.0 | 0.00 | 0.00 | 0.00 | 86 | 1012.0 |
| 20260905022102 | 83 | 216 | 0.0 | 0.0 | 0.00 | 0.00 | 0.00 | 85 | 1012.0 |
| 20260905021601 | 83 | 217 | 0.0 | 0.0 | 0.00 | 0.00 | 0.00 | 85 | 1012.0 |
| 20260905021522 | 82 | 217 | 0.0 | 0.0 | 0.00 | 0.00 | 0.00 | 85 | 1011.9 |
| 20260905021345 | 83 | 217 | 0.0 | 1.0 | 0.00 | 0.00 | 0.00 | 85 | 1012.0 |
| 20260905020602 | 83 | 217 | 0.0 | 1.0 | 0.00 | 0.00 | 0.00 | 85 | 1012.0 |
| 20260905020103 | 83 | 217 | 0.0 | 1.0 | 0.00 | 0.00 | 0.00 | 85 | 1012.0 |
| 20260905020005 | 83 | 217 | 0.0 | 1.0 | 0.00 | 0.00 | 0.00 | 85 | 1011.9 |
| 20260905015844 | 83 | 216 | 0.0 | 1.0 | 0.00 | 0.00 | 0.00 | 84 | 1011.9 |
| 20260905015102 | 83 | 216 | 0.0 | 1.0 | 0.00 | 0.00 | 0.00 | 84 | 1011.9 |
| 20260905014604 | 84 | 215 | 0.0 | 1.0 | 0.00 | 0.00 | 0.00 | 84 | 1011.9 |
| 20260905014504 | 83 | 215 | 0.0 | 1.0 | 0.00 | 0.00 | 0.00 | 84 | 1011.8 |
| 20260905014104 | 84 | 215 | 0.0 | 1.0 | 0.00 | 0.00 | 0.00 | 84 | 1011.9 |
| 20260905013603 | 84 | 215 | 0.0 | 0.0 | 0.00 | 0.00 | 0.00 | 84 | 1011.9 |
| 20260905013102 | 84 | 215 | 0.0 | 0.0 | 0.00 | 0.00 | 0.00 | 83 | 1011.9 |
| 20260905013049 | 83 | 215 | 0.0 | 0.0 | 0.00 | 0.00 | 0.00 | 83 | 1011.8 |
| 20260905012602 | 84 | 215 | 0.0 | 1.0 | 0.00 | 0.00 | 0.00 | 83 | 1012.0 |
| 20260905012101 | 84 | 215 | 0.0 | 1.0 | 0.00 | 0.00 | 0.00 | 83 | 1012.0 |
| 20260905011601 | 84 | 213 | 0.0 | 1.0 | 0.00 | 0.00 | 0.00 | 83 | 1012.0 |
| 20260905011550 | 84 | 213 | 0.0 | 1.0 | 0.00 | 0.00 | 0.00 | 83 | 1011.9 |
| 20260905011103 | 84 | 213 | 0.0 | 3.0 | 0.00 | 0.00 | 0.00 | 83 | 1011.7 |
| 20260905010602 | 84 | 210 | 0.0 | 3.0 | 0.00 | 0.00 | 0.00 | 83 | 1011.7 |
| 20260905010355 | 84 | 223 | 0.0 | 2.0 | 0.00 | 0.00 | 0.00 | 84 | 1011.7 |
| 20260905010038 | 84 | 223 | 0.0 | 2.0 | 0.00 | 0.00 | 0.00 | 84 | 1011.5 |
| 20260905005601 | 84 | 213 | 0.0 | 2.0 | 0.00 | 0.00 | 0.00 | 84 | 1011.6 |
| 20260905005355 | 84 | 213 | 1.0 | 2.0 | 0.00 | 0.00 | 0.00 | 85 | 1011.6 |
| 20260905004601 | 84 | 228 | 0.0 | 2.0 | 0.00 | 0.00 | 0.00 | 86 | 1011.6 |
| 20260905004505 | 84 | 239 | 0.0 | 2.0 | 0.00 | 0.00 | 0.00 | 86 | 1011.4 |
| 20260905004353 | 85 | 218 | 0.0 | 1.0 | 0.00 | 0.00 | 0.00 | 86 | 1011.6 |
| 20260905003602 | 85 | 218 | 0.0 | 1.0 | 0.00 | 0.00 | 0.00 | 86 | 1011.6 |
| 20260905003351 | 85 | 218 | 0.0 | 1.0 | 0.00 | 0.00 | 0.00 | 86 | 1011.6 |
| 20260905003004 | 84 | 218 | 0.0 | 1.0 | 0.00 | 0.00 | 0.00 | 86 | 1011.4 |
| 20260905002603 | 85 | 217 | 0.0 | 2.0 | 0.00 | 0.00 | 0.00 | 86 | 1011.6 |
| 20260905002102 | 85 | 215 | 0.0 | 2.0 | 0.00 | 0.00 | 0.00 | 86 | 1011.6 |
| 20260905001602 | 85 | 134 | 0.0 | 2.0 | 0.00 | 0.00 | 0.00 | 86 | 1011.6 |
| 20260905001503 | 85 | 134 | 0.0 | 2.0 | 0.00 | 0.00 | 0.00 | 86 | 1011.5 |
| 20260905001103 | 86 | 133 | 0.0 | 3.0 | 0.00 | 0.00 | 0.00 | 86 | 1011.5 |
| 20260905000601 | 86 | 129 | 1.0 | 3.0 | 0.00 | 0.00 | 0.00 | 86 | 1011.5 |
| 20260905000051 | 85 | 208 | 0.0 | 2.0 | 0.00 | 0.00 | 0.00 | 85 | 1011.4 |
| 20260904235853 | 86 | 127 | 1.0 | 5.0 | 0.00 | 0.00 | 0.00 | 85 | 1011.1 |
| 20260904235102 | 86 | 147 | 1.0 | 7.0 | 0.00 | 0.00 | 0.00 | 85 | 1011.1 |
| 20260904234602 | 86 | 210 | 2.0 | 7.0 | 0.00 | 0.00 | 0.00 | 85 | 1011.1 |
| 20260904234532 | 86 | 107 | 0.0 | 7.0 | 0.00 | 0.00 | 0.00 | 85 | 1011.0 |
| 20260904234058 | 86 | 97 | 2.0 | 5.0 | 0.00 | 0.00 | 0.00 | 85 | 1011.0 |
| 20260904233558 | 86 | 126 | 4.0 | 10.0 | 0.00 | 0.00 | 0.00 | 85 | 1011.0 |
| 20260904233055 | 86 | 167 | 5.0 | 10.0 | 0.00 | 0.00 | 0.00 | 84 | 1011.0 |
| 20260904233048 | 86 | 115 | 4.0 | 10.0 | 0.00 | 0.00 | 0.00 | 84 | 1010.8 |
| 20260904232556 | 86 | 114 | 5.0 | 10.0 | 0.00 | 0.00 | 0.00 | 84 | 1011.0 |
| 20260904232351 | 87 | 133 | 5.0 | 9.0 | 0.00 | 0.00 | 0.00 | 84 | 1011.0 |
| 20260904231850 | 87 | 129 | 5.0 | 11.0 | 0.00 | 0.00 | 0.00 | 83 | 1011.0 |
| 20260904231532 | 86 | 124 | 5.0 | 11.0 | 0.00 | 0.00 | 0.00 | 83 | 1010.8 |
| 20260904231054 | 87 | 118 | 6.0 | 11.0 | 0.00 | 0.00 | 0.00 | 83 | 1010.9 |
| 20260904230555 | 87 | 123 | 6.0 | 11.0 | 0.00 | 0.00 | 0.00 | 83 | 1010.9 |
| 20260904230044 | 87 | 118 | 6.0 | 11.0 | 0.00 | 0.00 | 0.00 | 83 | 1010.9 |
| 20260904230039 | 86 | 111 | 6.0 | 11.0 | 0.00 | 0.00 | 0.00 | 83 | 1010.8 |
| 20260904225542 | 87 | 118 | 5.0 | 10.0 | 0.00 | 0.00 | 0.00 | 84 | 1010.5 |
| 20260904225042 | 87 | 119 | 5.0 | 10.0 | 0.00 | 0.00 | 0.00 | 84 | 1010.5 |
| 20260904224543 | 87 | 119 | 5.0 | 10.0 | 0.00 | 0.00 | 0.00 | 84 | 1010.5 |
| 20260904224536 | 87 | 125 | 5.0 | 10.0 | 0.00 | 0.00 | 0.00 | 84 | 1010.4 |
| 20260904224042 | 87 | 144 | 6.0 | 13.0 | 0.00 | 0.00 | 0.00 | 84 | 1010.2 |
| 20260904223541 | 87 | 110 | 7.0 | 15.0 | 0.00 | 0.00 | 0.00 | 85 | 1010.2 |
| 20260904223041 | 87 | 109 | 8.0 | 15.0 | 0.00 | 0.00 | 0.00 | 84 | 1010.2 |
| 20260904223035 | 87 | 125 | 9.0 | 15.0 | 0.00 | 0.00 | 0.00 | 84 | 1010.1 |
| 20260904222542 | 87 | 119 | 8.0 | 15.0 | 0.00 | 0.00 | 0.00 | 84 | 1010.5 |
| 20260904222335 | 88 | 113 | 8.0 | 15.0 | 0.00 | 0.00 | 0.00 | 84 | 1010.5 |
| 20260904221538 | 88 | 121 | 7.0 | 14.0 | 0.00 | 0.00 | 0.00 | 83 | 1010.5 |
| 20260904221535 | 87 | 119 | 9.0 | 14.0 | 0.00 | 0.00 | 0.00 | 83 | 1010.3 |
| 20260904221037 | 88 | 128 | 6.0 | 16.0 | 0.00 | 0.00 | 0.00 | 82 | 1010.0 |
| 20260904220537 | 88 | 79 | 8.0 | 16.0 | 0.00 | 0.00 | 0.00 | 82 | 1010.0 |
| 20260904220138 | 88 | 101 | 10.0 | 16.0 | 0.00 | 0.00 | 0.00 | 81 | 1010.3 |
| 20260904220113 | 88 | 148 | 9.0 | 16.0 | 0.00 | 0.00 | 0.00 | 82 | 1010.0 |
| 20260904220108 | 88 | 110 | 7.0 | 15.0 | 0.00 | 0.00 | 0.00 | 82 | 1009.9 |
| 20260904215031 | 88 | 105 | 10.0 | 16.0 | 0.00 | 0.00 | 0.00 | 82 | 1010.3 |
| 20260904214531 | 89 | 123 | 10.0 | 16.0 | 0.00 | 0.00 | 0.00 | 81 | 1010.3 |
| 20260904214030 | 89 | 113 | 10.0 | 15.0 | 0.00 | 0.00 | 0.00 | 81 | 1010.5 |
| 20260904213530 | 89 | 123 | 9.0 | 16.0 | 0.00 | 0.00 | 0.00 | 81 | 1010.5 |
| 20260904213029 | 89 | 140 | 10.0 | 16.0 | 0.00 | 0.00 | 0.00 | 81 | 1010.5 |
| 20260904213007 | 88 | 108 | 8.0 | 16.0 | 0.00 | 0.00 | 0.00 | 81 | 1010.4 |
| 20260904212530 | 89 | 128 | 10.0 | 16.0 | 0.00 | 0.00 | 0.00 | 81 | 1010.5 |
| 20260904212030 | 89 | 128 | 9.0 | 17.0 | 0.00 | 0.00 | 0.00 | 81 | 1010.5 |
| 20260904211530 | 89 | 110 | 9.0 | 17.0 | 0.00 | 0.00 | 0.00 | 81 | 1010.5 |
| 20260904211505 | 88 | 123 | 7.0 | 17.0 | 0.00 | 0.00 | 0.00 | 81 | 1010.4 |
| 20260904211034 | 89 | 103 | 9.0 | 15.0 | 0.00 | 0.00 | 0.00 | 81 | 1011.0 |
| 20260904210534 | 89 | 123 | 9.0 | 15.0 | 0.00 | 0.00 | 0.00 | 81 | 1011.0 |
| 20260904210032 | 89 | 139 | 9.0 | 18.0 | 0.00 | 0.00 | 0.00 | 82 | 1011.0 |
| 20260904210005 | 89 | 105 | 8.0 | 18.0 | 0.00 | 0.00 | 0.00 | 82 | 1010.8 |
| 20260904205533 | 89 | 129 | 10.0 | 18.0 | 0.00 | 0.00 | 0.00 | 81 | 1010.9 |
| 20260904205029 | 89 | 146 | 9.0 | 16.0 | 0.00 | 0.00 | 0.00 | 80 | 1010.9 |
| 20260904204827 | 89 | 98 | 10.0 | 16.0 | 0.00 | 0.00 | 0.00 | 81 | 1010.9 |
| 20260904204504 | 89 | 109 | 8.0 | 15.0 | 0.00 | 0.00 | 0.00 | 80 | 1010.8 |
| 20260904204321 | 89 | 104 | 9.0 | 16.0 | 0.00 | 0.00 | 0.00 | 81 | 1011.0 |
| 20260904203530 | 89 | 97 | 9.0 | 15.0 | 0.00 | 0.00 | 0.00 | 81 | 1011.0 |
| 20260904203333 | 89 | 120 | 11.0 | 17.0 | 0.00 | 0.00 | 0.00 | 82 | 1011.0 |
| 20260904203005 | 88 | 88 | 9.0 | 16.0 | 0.00 | 0.00 | 0.00 | 82 | 1010.9 |
| 20260904202529 | 89 | 82 | 10.0 | 17.0 | 0.00 | 0.00 | 0.00 | 84 | 1010.8 |
| 20260904202031 | 89 | 114 | 9.0 | 15.0 | 0.00 | 0.00 | 0.00 | 82 | 1010.8 |
| 20260904201606 | 89 | 123 | 8.0 | 14.0 | 0.00 | 0.00 | 0.00 | 81 | 1010.6 |
| 20260904201531 | 89 | 108 | 9.0 | 15.0 | 0.00 | 0.00 | 0.00 | 81 | 1010.8 |
| 20260904201029 | 89 | 136 | 10.0 | 16.0 | 0.00 | 0.00 | 0.00 | 81 | 1010.9 |
| 20260904200821 | 90 | 118 | 10.0 | 16.0 | 0.00 | 0.00 | 0.00 | 79 | 1010.9 |
| 20260904200050 | 89 | 106 | 10.0 | 15.0 | 0.00 | 0.00 | 0.00 | 79 | 1010.7 |
| 20260904200029 | 90 | 111 | 10.0 | 15.0 | 0.00 | 0.00 | 0.00 | 79 | 1010.9 |
| 20260904195530 | 90 | 101 | 8.0 | 17.0 | 0.00 | 0.00 | 0.00 | 78 | 1011.0 |
| 20260904195034 | 89 | 113 | 9.0 | 17.0 | 0.00 | 0.00 | 0.00 | 78 | 1011.0 |
| 20260904194531 | 89 | 107 | 10.0 | 16.0 | 0.00 | 0.00 | 0.00 | 78 | 1011.0 |
| 20260904194526 | 89 | 121 | 9.0 | 16.0 | 0.00 | 0.00 | 0.00 | 78 | 1010.9 |
| 20260904194029 | 89 | 138 | 9.0 | 17.0 | 0.00 | 0.00 | 0.00 | 79 | 1011.3 |
| 20260904193530 | 89 | 132 | 9.0 | 17.0 | 0.00 | 0.00 | 0.00 | 79 | 1011.3 |
| 20260904193038 | 89 | 114 | 8.0 | 13.0 | 0.00 | 0.00 | 0.00 | 79 | 1011.3 |
| 20260904193009 | 89 | 94 | 8.0 | 13.0 | 0.00 | 0.00 | 0.00 | 79 | 1011.2 |
| 20260904192531 | 89 | 142 | 8.0 | 14.0 | 0.00 | 0.00 | 0.00 | 79 | 1011.5 |
| 20260904192030 | 89 | 111 | 7.0 | 14.0 | 0.00 | 0.00 | 0.00 | 80 | 1011.5 |
| 20260904191529 | 89 | 125 | 6.0 | 15.0 | 0.00 | 0.00 | 0.00 | 83 | 1011.5 |
| 20260904191503 | 89 | 106 | 5.0 | 13.0 | 0.00 | 0.00 | 0.00 | 83 | 1011.4 |
| 20260904191028 | 89 | 115 | 9.0 | 15.0 | 0.00 | 0.00 | 0.00 | 83 | 1011.6 |
| 20260904190529 | 88 | 113 | 9.0 | 16.0 | 0.00 | 0.00 | 0.00 | 82 | 1011.6 |
| 20260904190028 | 89 | 108 | 9.0 | 16.0 | 0.00 | 0.00 | 0.00 | 82 | 1011.6 |
| 20260904190003 | 88 | 108 | 9.0 | 16.0 | 0.00 | 0.00 | 0.00 | 83 | 1011.4 |
| 20260904185530 | 88 | 132 | 8.0 | 14.0 | 0.00 | 0.00 | 0.00 | 82 | 1011.6 |
| 20260904185029 | 88 | 75 | 7.0 | 11.0 | 0.00 | 0.00 | 0.00 | 81 | 1011.6 |
| 20260904184549 | 87 | 95 | 6.0 | 18.0 | 0.00 | 0.00 | 0.00 | 82 | 1011.5 |
| 20260904184531 | 87 | 92 | 9.0 | 18.0 | 0.00 | 0.00 | 0.00 | 82 | 1011.6 |
| 20260904184029 | 87 | 115 | 10.0 | 18.0 | 0.00 | 0.00 | 0.00 | 83 | 1012.0 |
| 20260904183530 | 86 | 126 | 10.0 | 16.0 | 0.00 | 0.00 | 0.00 | 80 | 1012.0 |
| 20260904183035 | 86 | 104 | 8.0 | 16.0 | 0.00 | 0.00 | 0.00 | 82 | 1011.9 |
| 20260904183029 | 87 | 104 | 9.0 | 16.0 | 0.00 | 0.00 | 0.00 | 82 | 1012.0 |
| 20260904182616 | 88 | 103 | 9.0 | 18.0 | 0.00 | 0.00 | 0.00 | 83 | 1012.1 |
| 20260904182605 | 87 | 120 | 9.0 | 18.0 | 0.00 | 0.00 | 0.00 | 84 | 1012.1 |
| 20260904181817 | 88 | 115 | 9.0 | 16.0 | 0.00 | 0.00 | 0.00 | 82 | 1012.1 |
| 20260904181525 | 88 | 109 | 8.0 | 15.0 | 0.00 | 0.00 | 0.00 | 82 | 1012.0 |
| 20260904181029 | 89 | 101 | 10.0 | 16.0 | 0.00 | 0.00 | 0.00 | 82 | 1012.2 |
| 20260904180821 | 89 | 118 | 10.0 | 16.0 | 0.00 | 0.00 | 0.00 | 80 | 1012.2 |
| 20260904180029 | 90 | 117 | 9.0 | 14.0 | 0.00 | 0.00 | 0.00 | 80 | 1012.2 |
| 20260904180013 | 89 | 106 | 8.0 | 13.0 | 0.00 | 0.00 | 0.00 | 80 | 1012.1 |
| 20260904175529 | 90 | 84 | 8.0 | 14.0 | 0.00 | 0.00 | 0.00 | 80 | 1012.4 |
| 20260904175030 | 91 | 110 | 7.0 | 13.0 | 0.00 | 0.00 | 0.00 | 79 | 1012.4 |
| 20260904174529 | 92 | 86 | 5.0 | 13.0 | 0.00 | 0.00 | 0.00 | 78 | 1012.4 |
| 20260904174511 | 92 | 130 | 4.0 | 13.0 | 0.00 | 0.00 | 0.00 | 78 | 1012.3 |
| 20260904174031 | 93 | 109 | 3.0 | 9.0 | 0.00 | 0.00 | 0.00 | 69 | 1012.5 |
| 20260904173529 | 94 | 113 | 2.0 | 7.0 | 0.00 | 0.00 | 0.00 | 68 | 1012.5 |
| 20260904173320 | 93 | 123 | 3.0 | 9.0 | 0.00 | 0.00 | 0.00 | 68 | 1012.5 |
| 20260904172531 | 94 | 111 | 3.0 | 9.0 | 0.00 | 0.00 | 0.00 | 66 | 1012.6 |
| 20260904172031 | 95 | 113 | 2.0 | 6.0 | 0.00 | 0.00 | 0.00 | 66 | 1012.6 |
| 20260904171543 | 94 | 157 | 1.0 | 9.0 | 0.00 | 0.00 | 0.00 | 67 | 1012.4 |
| 20260904171529 | 94 | 189 | 3.0 | 9.0 | 0.00 | 0.00 | 0.00 | 67 | 1012.6 |
| 20260904171028 | 93 | 236 | 3.0 | 9.0 | 0.00 | 0.00 | 0.00 | 70 | 1012.6 |
| 20260904170529 | 94 | 111 | 2.0 | 8.0 | 0.00 | 0.00 | 0.00 | 68 | 1012.6 |
| 20260904170316 | 95 | 148 | 3.0 | 8.0 | 0.00 | 0.00 | 0.00 | 68 | 1012.6 |
| 20260904165822 | 94 | 225 | 3.0 | 8.0 | 0.00 | 0.00 | 0.00 | 65 | 1012.9 |
| 20260904165029 | 94 | 116 | 2.0 | 7.0 | 0.00 | 0.00 | 0.00 | 67 | 1012.9 |
| 20260904164530 | 95 | 123 | 2.0 | 6.0 | 0.00 | 0.00 | 0.00 | 69 | 1012.9 |
| 20260904164512 | 94 | 209 | 2.0 | 6.0 | 0.00 | 0.00 | 0.00 | 69 | 1012.7 |
| 20260904164030 | 95 | 203 | 2.0 | 6.0 | 0.00 | 0.00 | 0.00 | 68 | 1013.0 |
| 20260904163529 | 94 | 229 | 2.0 | 5.0 | 0.00 | 0.00 | 0.00 | 71 | 1013.0 |
| 20260904163030 | 93 | 233 | 3.0 | 5.0 | 0.00 | 0.00 | 0.00 | 72 | 1013.0 |
| 20260904163011 | 93 | 201 | 2.0 | 5.0 | 0.00 | 0.00 | 0.00 | 72 | 1012.9 |
| 20260904162827 | 93 | 132 | 3.0 | 7.0 | 0.00 | 0.00 | 0.00 | 71 | 1013.1 |
| 20260904162029 | 93 | 136 | 3.0 | 7.0 | 0.00 | 0.00 | 0.00 | 73 | 1013.1 |
| 20260904161618 | 92 | 210 | 3.0 | 6.0 | 0.00 | 0.00 | 0.00 | 72 | 1012.9 |
| 20260904161530 | 93 | 177 | 3.0 | 7.0 | 0.00 | 0.00 | 0.00 | 72 | 1013.1 |
| 20260904161030 | 92 | 217 | 2.0 | 7.0 | 0.00 | 0.00 | 0.00 | 72 | 1013.3 |
| 20260904160530 | 93 | 135 | 2.0 | 7.0 | 0.00 | 0.00 | 0.00 | 73 | 1013.3 |
| 20260904160318 | 92 | 209 | 1.0 | 6.0 | 0.00 | 0.00 | 0.00 | 74 | 1013.3 |
| 20260904155513 | 92 | 145 | 2.0 | 6.0 | 0.00 | 0.00 | 0.00 | 73 | 1013.5 |
| 20260904155007 | 92 | 152 | 3.0 | 8.0 | 0.00 | 0.00 | 0.00 | 73 | 1013.5 |
| 20260904154530 | 92 | 242 | 2.0 | 8.0 | 0.00 | 0.00 | 0.00 | 72 | 1013.3 |
| 20260904154505 | 92 | 229 | 3.0 | 11.0 | 0.00 | 0.00 | 0.00 | 72 | 1013.5 |
| 20260904154005 | 93 | 146 | 3.0 | 11.0 | 0.00 | 0.00 | 0.00 | 74 | 1013.5 |
| 20260904153506 | 93 | 215 | 2.0 | 8.0 | 0.00 | 0.00 | 0.00 | 74 | 1013.5 |
| 20260904153041 | 92 | 156 | 2.0 | 8.0 | 0.00 | 0.00 | 0.00 | 75 | 1013.4 |
| 20260904153006 | 93 | 174 | 3.0 | 8.0 | 0.00 | 0.00 | 0.00 | 74 | 1013.5 |
| 20260904152506 | 92 | 200 | 3.0 | 8.0 | 0.00 | 0.00 | 0.00 | 74 | 1013.4 |
| 20260904152005 | 92 | 112 | 3.0 | 8.0 | 0.00 | 0.00 | 0.00 | 74 | 1013.4 |
| 20260904151530 | 91 | 142 | 2.0 | 8.0 | 0.00 | 0.00 | 0.00 | 75 | 1013.3 |
| 20260904151506 | 92 | 123 | 3.0 | 8.0 | 0.00 | 0.00 | 0.00 | 75 | 1013.4 |
| 20260904151004 | 92 | 153 | 3.0 | 7.0 | 0.00 | 0.00 | 0.00 | 76 | 1013.3 |
| 20260904150505 | 92 | 143 | 2.0 | 7.0 | 0.00 | 0.00 | 0.00 | 76 | 1013.3 |
| 20260904150039 | 91 | 139 | 3.0 | 7.0 | 0.00 | 0.00 | 0.00 | 76 | 1013.1 |
| 20260904150005 | 92 | 110 | 3.0 | 7.0 | 0.00 | 0.00 | 0.00 | 76 | 1013.3 |
| 20260904145503 | 91 | 260 | 3.0 | 8.0 | 0.00 | 0.00 | 0.00 | 76 | 1013.1 |
| 20260904145004 | 91 | 286 | 3.0 | 8.0 | 0.00 | 0.00 | 0.00 | 75 | 1013.1 |
| 20260904144532 | 91 | 269 | 2.0 | 5.0 | 0.00 | 0.00 | 0.00 | 77 | 1013.0 |
| 20260904144503 | 92 | 219 | 2.0 | 5.0 | 0.00 | 0.00 | 0.00 | 77 | 1013.1 |
| 20260904144004 | 91 | 188 | 2.0 | 4.0 | 0.00 | 0.00 | 0.00 | 77 | 1013.1 |
| 20260904143503 | 91 | 220 | 2.0 | 6.0 | 0.00 | 0.00 | 0.00 | 80 | 1013.1 |
| 20260904143034 | 90 | 228 | 1.0 | 6.0 | 0.00 | 0.00 | 0.00 | 80 | 1012.9 |
| 20260904143002 | 90 | 194 | 2.0 | 6.0 | 0.00 | 0.00 | 0.00 | 80 | 1013.1 |
| 20260904142502 | 89 | 208 | 2.0 | 6.0 | 0.00 | 0.00 | 0.00 | 81 | 1013.0 |
| 20260904142001 | 89 | 223 | 3.0 | 7.0 | 0.00 | 0.00 | 0.00 | 82 | 1013.0 |
| 20260904141535 | 88 | 252 | 2.0 | 8.0 | 0.00 | 0.00 | 0.00 | 82 | 1012.9 |
| 20260904141502 | 88 | 230 | 3.0 | 9.0 | 0.00 | 0.00 | 0.00 | 82 | 1013.0 |
| 20260904141002 | 88 | 240 | 3.0 | 9.0 | 0.00 | 0.00 | 0.00 | 82 | 1012.7 |
| 20260904140501 | 87 | 205 | 3.0 | 8.0 | 0.00 | 0.00 | 0.00 | 83 | 1012.7 |
| 20260904140028 | 87 | 233 | 3.0 | 9.0 | 0.00 | 0.00 | 0.00 | 83 | 1012.6 |
| 20260904140002 | 87 | 272 | 3.0 | 9.0 | 0.00 | 0.00 | 0.00 | 83 | 1012.7 |
| 20260904135501 | 87 | 252 | 3.0 | 9.0 | 0.00 | 0.00 | 0.00 | 83 | 1012.7 |
| 20260904135257 | 87 | 213 | 2.0 | 7.0 | 0.00 | 0.00 | 0.00 | 83 | 1012.7 |
| 20260904134511 | 87 | 141 | 2.0 | 6.0 | 0.00 | 0.00 | 0.00 | 84 | 1012.5 |
| 20260904134501 | 87 | 146 | 2.0 | 6.0 | 0.00 | 0.00 | 0.00 | 84 | 1012.7 |
| 20260904134001 | 87 | 275 | 1.0 | 4.0 | 0.00 | 0.00 | 0.00 | 85 | 1012.6 |
| 20260904133503 | 87 | 205 | 1.0 | 5.0 | 0.00 | 0.00 | 0.00 | 85 | 1012.6 |
| 20260904133020 | 86 | 158 | 0.0 | 6.0 | 0.00 | 0.00 | 0.00 | 85 | 1012.4 |
| 20260904133004 | 86 | 158 | 2.0 | 6.0 | 0.00 | 0.00 | 0.00 | 85 | 1012.6 |
| 20260904132502 | 86 | 241 | 2.0 | 7.0 | 0.00 | 0.00 | 0.00 | 86 | 1012.5 |
| 20260904132003 | 85 | 177 | 2.0 | 7.0 | 0.00 | 0.00 | 0.00 | 86 | 1012.5 |
| 20260904131508 | 85 | 213 | 0.0 | 5.0 | 0.00 | 0.00 | 0.00 | 87 | 1012.4 |
| 20260904131503 | 85 | 209 | 1.0 | 5.0 | 0.00 | 0.00 | 0.00 | 87 | 1012.5 |
| 20260904131251 | 85 | 203 | 0.0 | 3.0 | 0.00 | 0.00 | 0.00 | 87 | 1012.5 |
| 20260904130502 | 85 | 198 | 0.0 | 3.0 | 0.00 | 0.00 | 0.00 | 88 | 1012.5 |
| 20260904130009 | 84 | 190 | 0.0 | 3.0 | 0.00 | 0.00 | 0.00 | 88 | 1012.3 |
| 20260904130004 | 84 | 190 | 0.0 | 3.0 | 0.00 | 0.00 | 0.00 | 88 | 1012.5 |
| 20260904125503 | 84 | 243 | 0.0 | 3.0 | 0.00 | 0.00 | 0.00 | 88 | 1012.1 |
| 20260904125002 | 83 | 196 | 0.0 | 4.0 | 0.00 | 0.00 | 0.00 | 89 | 1012.1 |
| 20260904124508 | 83 | 221 | 0.0 | 4.0 | 0.00 | 0.00 | 0.00 | 89 | 1012.0 |
| 20260904124503 | 83 | 221 | 0.0 | 4.0 | 0.00 | 0.00 | 0.00 | 89 | 1012.1 |
| 20260904124002 | 83 | 214 | 0.0 | 3.0 | 0.00 | 0.00 | 0.00 | 90 | 1012.1 |
| 20260904123503 | 82 | 194 | 1.0 | 4.0 | 0.00 | 0.00 | 0.00 | 91 | 1012.1 |
| 20260904123008 | 81 | 200 | 0.0 | 4.0 | 0.00 | 0.00 | 0.00 | 91 | 1012.0 |
| 20260904123003 | 81 | 194 | 0.0 | 4.0 | 0.00 | 0.00 | 0.00 | 91 | 1012.1 |
| 20260904122503 | 81 | 225 | 0.0 | 2.0 | 0.00 | 0.00 | 0.00 | 92 | 1012.0 |
| 20260904122003 | 80 | 200 | 0.0 | 0.0 | 0.00 | 0.00 | 0.00 | 92 | 1012.0 |
| 20260904121514 | 79 | 199 | 0.0 | 1.0 | 0.00 | 0.00 | 0.00 | 92 | 1011.9 |
| 20260904121509 | 80 | 199 | 0.0 | 1.0 | 0.00 | 0.00 | 0.00 | 92 | 1012.0 |
| 20260904121007 | 79 | 196 | 0.0 | 1.0 | 0.00 | 0.00 | 0.00 | 92 | 1012.0 |
| 20260904120504 | 79 | 185 | 0.0 | 0.0 | 0.00 | 0.00 | 0.00 | 92 | 1012.0 |
| 20260904120014 | 78 | 185 | 0.0 | 0.0 | 0.00 | 0.00 | 0.00 | 92 | 1011.9 |
| 20260904120003 | 79 | 185 | 0.0 | 0.0 | 0.00 | 0.00 | 0.00 | 92 | 1012.0 |
| 20260904115504 | 79 | 185 | 0.0 | 0.0 | 0.00 | 0.00 | 0.00 | 92 | 1011.8 |
| 20260904115004 | 79 | 185 | 0.0 | 1.0 | 0.00 | 0.00 | 0.00 | 92 | 1011.8 |
| 20260904114508 | 78 | 182 | 0.0 | 1.0 | 0.00 | 0.00 | 0.00 | 92 | 1011.7 |
| 20260904114502 | 79 | 182 | 0.0 | 1.0 | 0.00 | 0.00 | 0.00 | 92 | 1011.8 |
| 20260904114002 | 79 | 148 | 0.0 | 0.0 | 0.00 | 0.00 | 0.00 | 93 | 1011.5 |
| 20260904113505 | 79 | 148 | 0.0 | 0.0 | 0.00 | 0.00 | 0.00 | 93 | 1011.5 |
| 20260904113054 | 78 | 148 | 0.0 | 0.0 | 0.00 | 0.00 | 0.00 | 92 | 1011.4 |
| 20260904113001 | 79 | 148 | 0.0 | 0.0 | 0.00 | 0.00 | 0.00 | 92 | 1011.5 |
| 20260904112501 | 78 | 148 | 0.0 | 0.0 | 0.00 | 0.00 | 0.00 | 92 | 1011.5 |
| 20260904112002 | 78 | 115 | 0.0 | 0.0 | 0.00 | 0.00 | 0.00 | 92 | 1011.5 |
| 20260904111539 | 78 | 115 | 0.0 | 0.0 | 0.00 | 0.00 | 0.00 | 92 | 1011.4 |
| 20260904111501 | 78 | 115 | 0.0 | 0.0 | 0.00 | 0.00 | 0.00 | 92 | 1011.5 |
| 20260904111250 | 78 | 115 | 0.0 | 0.0 | 0.00 | 0.00 | 0.00 | 92 | 1011.4 |
| 20260904110501 | 78 | 115 | 0.0 | 0.0 | 0.00 | 0.00 | 0.00 | 92 | 1011.4 |
| 20260904110031 | 78 | 115 | 0.0 | 0.0 | 0.00 | 0.00 | 0.00 | 92 | 1011.3 |
| 20260904110001 | 78 | 115 | 0.0 | 0.0 | 0.00 | 0.00 | 0.00 | 92 | 1011.4 |
| 20260904105750 | 78 | 115 | 0.0 | 0.0 | 0.00 | 0.00 | 0.00 | 92 | 1011.2 |
| 20260904105000 | 78 | 115 | 0.0 | 0.0 | 0.00 | 0.00 | 0.00 | 92 | 1011.2 |
| 20260904104534 | 78 | 115 | 0.0 | 0.0 | 0.00 | 0.00 | 0.00 | 92 | 1011.1 |
| 20260904104503 | 78 | 115 | 0.0 | 0.0 | 0.00 | 0.00 | 0.00 | 92 | 1011.2 |
| 20260904104251 | 78 | 115 | 0.0 | 0.0 | 0.00 | 0.00 | 0.00 | 92 | 1011.2 |
| 20260904103502 | 78 | 115 | 0.0 | 0.0 | 0.00 | 0.00 | 0.00 | 92 | 1011.2 |
| 20260904103038 | 78 | 115 | 0.0 | 0.0 | 0.00 | 0.00 | 0.00 | 92 | 1011.0 |
| 20260904103002 | 78 | 115 | 0.0 | 0.0 | 0.00 | 0.00 | 0.00 | 92 | 1011.2 |
| 20260904102500 | 79 | 115 | 0.0 | 0.0 | 0.00 | 0.00 | 0.00 | 92 | 1011.0 |
| 20260904102001 | 79 | 115 | 0.0 | 0.0 | 0.00 | 0.00 | 0.00 | 92 | 1011.0 |
| 20260904101509 | 78 | 115 | 0.0 | 0.0 | 0.00 | 0.00 | 0.00 | 92 | 1010.9 |
| 20260904101502 | 79 | 115 | 0.0 | 1.0 | 0.00 | 0.00 | 0.00 | 92 | 1011.0 |
| 20260904101245 | 78 | 115 | 0.0 | 1.0 | 0.00 | 0.00 | 0.00 | 92 | 1010.7 |
| 20260904100502 | 78 | 96 | 0.0 | 0.0 | 0.00 | 0.00 | 0.00 | 92 | 1010.7 |
| 20260904100009 | 78 | 96 | 0.0 | 0.0 | 0.00 | 0.00 | 0.00 | 92 | 1010.6 |
| 20260904100004 | 79 | 96 | 0.0 | 0.0 | 0.00 | 0.00 | 0.00 | 92 | 1010.7 |